This demonstration page uses our WeatherBlox Daily Observations layout. Learn more.

Hourly Observations for October 13, 2016

Temp ( °F °C ) Dew Point ( °F °C ) Humidity (%) Winds ( mph kmh ) Pressure ( in mb ) Visibility ( mi km ) Precip ( " mm )
12:15 am 00:15 Clear 31 -0.5 28 -2.3 88 88 SSE 3 6 30.39 1029 10 16.09344 0 0
12:35 am 00:35 Clear 30 -1.3 26 -3.2 87 87 S 3 6 30.42 1030 10 16.09344 0 0
12:55 am 00:55 Clear 31 -0.7 28 -2.5 88 88 SSE 5 7 30.39 1029 10 16.09344 0 0
1:15 am 01:15 Clear 32 -0.1 28 -2.5 84 84 S 3 6 30.39 1029 10 16.09344 0 0
1:35 am 01:35 Clear 31 -0.5 27 -2.7 85 85 S 5 7 30.36 1028 10 16.09344 0 0
1:55 am 01:55 Clear 31 -0.6 28 -2.5 87 87 S 5 7 30.36 1028 10 16.09344 0 0
2:15 am 02:15 Clear 32 0 28 -2 87 87 S 7 11 30.36 1028 10 16.09344 0 0
2:35 am 02:35 Clear 33 0.5 29 -1.5 87 87 S 6 9 30.36 1028 10 16.09344 0 0
2:55 am 02:55 Clear 32 0 28 -2.1 86 86 S 7 11 30.36 1028 10 16.09344 0 0
3:15 am 03:15 Clear 31 -0.3 28 -2.1 88 88 S 6 9 30.36 1028 10 16.09344 0 0
3:35 am 03:35 Clear 32 -0.1 29 -1.8 88 88 S 7 11 30.36 1028 10 16.09344 0 0
3:55 am 03:55 Clear 33 0.5 31 -0.8 91 91 S 5 7 30.36 1028 10 16.09344 0 0
4:15 am 04:15 Clear 32 0 29 -1.5 90 90 S 6 9 30.36 1028 10 16.09344 0 0
4:35 am 04:35 Clear 32 0.2 30 -0.9 92 92 S 6 9 30.36 1028 10 16.09344 0 0
4:55 am 04:55 Clear 34 0.9 31 -0.4 91 91 SSE 6 9 30.36 1028 10 16.09344 0 0
5:15 am 05:15 Clear 32 -0.2 30 -1.3 92 92 S 8 13 30.36 1028 10 16.09344 0 0
5:35 am 05:35 Clear 31 -0.5 29 -1.5 93 93 S 7 11 30.36 1028 10 16.09344 0 0
5:55 am 05:55 Clear 32 -0.1 30 -1.2 92 92 S 6 9 30.36 1028 10 16.09344 0 0
6:15 am 06:15 Clear 32 -0.1 30 -1.3 92 92 S 7 11 30.33 1027 10 16.09344 0 0
6:35 am 06:35 Clear 31 -0.4 29 -1.5 92 92 S 6 9 30.33 1027 10 16.09344 0 0
6:55 am 06:55 Clear 31 -0.5 29 -1.6 92 92 S 6 9 30.33 1027 10 16.09344 0 0
7:15 am 07:15 Clear 32 0 30 -1.1 92 92 S 7 11 30.33 1027 10 16.09344 0 0
7:35 am 07:35 Clear 34 1.1 32 -0.1 92 92 S 9 15 30.33 1027 10 16.09344 0 0
7:55 am 07:55 Sunny 34 1 32 -0.2 92 92 S 6 9 30.33 1027 10 16.09344 0 0
8:15 am 08:15 Sunny 34 1.2 32 0 92 92 S 8 13 30.33 1027 10 16.09344 0 0
8:35 am 08:35 Sunny 35 1.7 32 0.2 90 90 SSW 10 17 30.3 1026 10 16.09344 0 0
8:55 am 08:55 Sunny 36 2.2 33 0.8 91 91 S 8 13 30.3 1026 10 16.09344 0 0
9:15 am 09:15 Sunny 37 2.7 34 0.9 88 88 S 10 17 30.33 1027 10 16.09344 0 0
9:35 am 09:35 Sunny 37 3 34 1 87 87 S 9 15 30.33 1027 10 16.09344 0 0
9:55 am 09:55 Sunny 38 3.5 35 1.5 87 87 S 10 17 30.3 1026 10 16.09344 0 0
10:15 am 10:15 Sunny 41 4.9 36 2.3 83 83 S 14 22 30.27 1025 10 16.09344 0 0
10:35 am 10:35 Partly Cloudy 42 5.6 36 2.4 80 80 S 9 15 30.27 1025 10 16.09344 0 0
10:55 am 10:55 Mostly Cloudy 44 6.4 36 2.4 76 76 S 14 22 30.27 1025 10 16.09344 0 0
11:15 am 11:15 Mostly Cloudy 45 7.1 36 2 70 70 S 16 26 30.27 1025 10 16.09344 0 0
11:35 am 11:35 Sunny 46 8 35 1.8 65 65 SSW 16 26 30.24 1024 10 16.09344 0 0
11:55 am 11:55 Sunny 48 8.7 35 1.5 61 61 SSW 12 19 30.21 1023 10 16.09344 0 0
12:15 pm 12:15 Sunny 47 8.3 35 1.6 63 63 S 12 19 30.24 1024 10 16.09344 0 0
12:35 pm 12:35 Sunny 47 8.4 35 1.8 63 63 S 13 20 30.21 1023 10 16.09344 0 0
12:55 pm 12:55 Sunny 49 9.2 36 2 61 61 S 15 24 30.21 1023 10 16.09344 0 0
1:15 pm 13:15 Sunny 49 9.7 36 2.4 61 61 S 12 19 30.18 1022 10 16.09344 0 0
1:35 pm 13:35 Sunny 55 12.6 38 3.1 53 53 SSE 12 19 30.15 1021 10 16.09344 0 0
1:55 pm 13:55 Sunny 55 13 36 2.1 48 48 S 13 20 30.12 1020 10 16.09344 0 0
2:15 pm 14:15 Sunny 55 12.9 36 2.4 49 49 S 14 22 30.12 1020 10 16.09344 0 0
2:35 pm 14:35 Sunny 58 14.3 35 1.9 43 43 S 15 24 30.09 1019 10 16.09344 0 0
2:55 pm 14:55 Sunny 58 14.6 35 1.8 42 42 S 14 22 30.09 1019 10 16.09344 0 0
3:15 pm 15:15 Sunny 58 14.5 35 1.5 42 42 S 17 28 30.09 1019 10 16.09344 0 0
3:35 pm 15:35 Sunny 58 14.5 36 2.3 44 44 S 16 26 30.09 1019 10 16.09344 0 0
3:55 pm 15:55 Sunny 58 14.6 36 2.4 44 44 S 15 24 30.09 1019 10 16.09344 0 0
4:15 pm 16:15 Sunny 59 15 37 2.5 43 43 SSE 20 31 30.06 1018 10 16.09344 0 0
4:35 pm 16:35 Sunny 60 15.4 37 2.6 42 42 S 15 24 30.06 1018 10 16.09344 0 0
4:55 pm 16:55 Sunny 60 15.3 37 2.7 43 43 S 16 26 30.06 1018 10 16.09344 0 0
5:15 pm 17:15 Sunny 60 15.3 37 2.5 42 42 S 15 24 30.06 1018 10 16.09344 0 0
5:35 pm 17:35 Sunny 59 15.1 37 2.5 43 43 S 14 22 30.06 1018 10 16.09344 0 0
5:55 pm 17:55 Sunny 59 15 37 2.6 44 44 S 14 22 30.03 1017 10 16.09344 0 0
6:15 pm 18:15 Sunny 58 14.7 36 2.3 43 43 S 13 20 30.03 1017 10 16.09344 0 0
6:35 pm 18:35 Sunny 57 14.1 36 2.3 45 45 SSE 12 19 30.03 1017 10 16.09344 0 0
6:55 pm 18:55 Sunny 56 13.3 37 2.5 48 48 SSE 9 15 30.03 1017 10 16.09344 0 0
7:15 pm 19:15 Clear 54 12.4 37 2.6 52 52 SSE 7 11 30.06 1018 10 16.09344 0 0
7:35 pm 19:35 Clear 51 10.5 37 2.6 58 58 SSE 6 9 30.09 1019 10 16.09344 0 0
7:55 pm 19:55 Clear 49 9.5 36 2.2 61 61 SE 6 9 30.12 1020 10 16.09344 0 0
8:15 pm 20:15 Clear 48 9 37 2.5 64 64 SSE 9 15 30.12 1020 10 16.09344 0 0
8:35 pm 20:35 Clear 48 8.7 37 2.5 65 65 SSE 8 13 30.12 1020 10 16.09344 0 0
8:55 pm 20:55 Clear 47 8.4 37 2.5 67 67 SSE 10 17 30.12 1020 10 16.09344 0 0
9:15 pm 21:15 Clear 47 8.2 36 2.4 67 67 SSE 9 15 30.12 1020 10 16.09344 0 0
9:35 pm 21:35 Clear 46 7.8 36 2.2 68 68 SSE 10 17 30.09 1019 10 16.09344 0 0
9:55 pm 21:55 Clear 46 7.7 37 2.5 70 70 SSE 12 19 30.09 1019 10 16.09344 0 0
10:15 pm 22:15 Clear 46 8 37 2.6 69 69 SSE 10 17 30.12 1020 10 16.09344 0 0
10:35 pm 22:35 Clear 46 8 37 2.6 69 69 SSE 12 19 30.09 1019 10 16.09344 0 0
10:55 pm 22:55 Clear 46 7.6 37 2.7 71 71 SSE 12 19 30.09 1019 10 16.09344 0 0
11:15 pm 23:15 Clear 46 7.8 37 2.7 70 70 S 15 24 30.09 1019 10 16.09344 0 0
11:35 pm 23:35 Clear 45 7.2 37 2.5 72 72 S 12 19 30.12 1020 10 16.09344 0 0
11:55 pm 23:55 Clear 44 6.8 37 2.5 74 74 SSE 10 17 30.09 1019 10 16.09344 0 0

Powered by AerisWeather